{"data":{"norad_id":56077,"epoch":"2026-05-25T02:10:49.973088Z","epoch_age_seconds":67502,"freshness":"FRESH","line1":"1 56077U 23043AH  26145.09085617  .00000116  00000+0  27366-3 0  9995","line2":"2 56077  87.8990 263.8000 0002104  96.8159 263.3211 13.15547564153370","mean_motion":13.15547564,"eccentricity":0.0002104,"inclination_deg":87.899,"raan_deg":263.8,"arg_perigee_deg":96.8159,"mean_anomaly_deg":263.3211,"bstar":0.00027366,"rev_number":15337,"period_min":109.46012439274,"perigee_km":1200.179741486,"apogee_km":1203.3693682683,"semimajor_km":7579.9115548772,"source":"CELESTRAK","updated_at":"2026-05-25T13:38:22.706896Z"}}